TimeCST,TemperatureF,Dew PointF,Humidity,Sea Level PressureIn,VisibilityMPH,Wind Direction,Wind SpeedMPH,Gust SpeedMPH,PrecipitationIn,Events,Conditions,WindDirDegrees,DateUTC
12:15 AM,14.0,14.0,100,30.00,10.0,SSE,8.1,-,N/A,,Unknown,160,2013-03-03 06:15:00
12:35 AM,14.0,14.0,100,30.00,10.0,SSE,6.9,-,N/A,,Unknown,150,2013-03-03 06:35:00
12:55 AM,14.0,14.0,100,29.99,10.0,SE,8.1,-,N/A,,Unknown,140,2013-03-03 06:55:00
1:35 AM,12.2,12.2,100,29.97,10.0,ESE,8.1,-,N/A,,Unknown,120,2013-03-03 07:35:00
1:55 AM,12.2,12.2,100,29.97,10.0,SE,8.1,-,N/A,,Unknown,130,2013-03-03 07:55:00
2:15 AM,12.2,12.2,100,29.97,10.0,SE,6.9,-,N/A,,Unknown,140,2013-03-03 08:15:00
2:35 AM,12.2,12.2,100,29.97,10.0,SE,6.9,-,N/A,,Unknown,130,2013-03-03 08:35:00
2:55 AM,14.0,14.0,100,29.97,10.0,East,4.6,-,N/A,,Unknown,80,2013-03-03 08:55:00
3:15 AM,14.0,14.0,100,29.95,10.0,East,8.1,-,N/A,,Unknown,100,2013-03-03 09:15:00
3:35 AM,14.0,14.0,100,29.95,10.0,East,10.4,-,N/A,,Unknown,100,2013-03-03 09:35:00
3:55 AM,14.0,14.0,100,29.94,10.0,East,10.4,-,N/A,,Unknown,100,2013-03-03 09:55:00
4:15 AM,12.2,12.2,100,29.93,10.0,East,9.2,-,N/A,,Unknown,100,2013-03-03 10:15:00
4:35 AM,10.4,10.4,100,29.94,10.0,ESE,9.2,-,N/A,,Unknown,110,2013-03-03 10:35:00
4:55 AM,12.2,12.2,100,29.94,10.0,East,10.4,-,N/A,,Unknown,100,2013-03-03 10:55:00
5:15 AM,12.2,12.2,100,29.94,10.0,East,11.5,-,N/A,,Unknown,100,2013-03-03 11:15:00
5:35 AM,10.4,10.4,100,29.93,10.0,East,10.4,-,N/A,,Unknown,100,2013-03-03 11:35:00
6:15 AM,10.4,10.4,100,29.93,10.0,ESE,10.4,-,N/A,,Unknown,110,2013-03-03 12:15:00
6:35 AM,14.0,14.0,100,29.92,10.0,East,9.2,-,N/A,,Unknown,90,2013-03-03 12:35:00
6:55 AM,14.0,14.0,100,29.91,10.0,East,9.2,-,N/A,,Unknown,90,2013-03-03 12:55:00
7:15 AM,15.8,15.8,100,29.91,10.0,East,6.9,-,N/A,,Unknown,100,2013-03-03 13:15:00
7:35 AM,15.8,15.8,100,29.90,10.0,ESE,6.9,-,N/A,,Unknown,110,2013-03-03 13:35:00
7:55 AM,15.8,15.8,100,29.90,10.0,ESE,6.9,-,N/A,,Unknown,120,2013-03-03 13:55:00
8:15 AM,15.8,15.8,100,29.89,10.0,ESE,9.2,-,N/A,,Unknown,110,2013-03-03 14:15:00
8:35 AM,17.6,17.6,100,29.89,10.0,East,8.1,-,N/A,,Unknown,100,2013-03-03 14:35:00
8:55 AM,17.6,17.6,100,29.88,10.0,East,9.2,-,N/A,,Unknown,100,2013-03-03 14:55:00
9:15 AM,17.6,17.6,100,29.88,10.0,East,9.2,-,N/A,,Unknown,100,2013-03-03 15:15:00
9:35 AM,17.6,17.6,100,29.88,10.0,East,8.1,-,N/A,,Unknown,100,2013-03-03 15:35:00
9:55 AM,19.4,17.6,93,29.88,9.0,East,6.9,-,N/A,,Unknown,100,2013-03-03 15:55:00
10:15 AM,19.4,19.4,100,29.88,9.0,ESE,6.9,-,N/A,,Unknown,110,2013-03-03 16:15:00
10:35 AM,19.4,19.4,100,29.87,8.0,ESE,9.2,-,N/A,,Unknown,110,2013-03-03 16:35:00
10:55 AM,21.2,19.4,93,29.86,8.0,East,8.1,-,N/A,,Unknown,90,2013-03-03 16:55:00
11:15 AM,21.2,19.4,93,29.85,9.0,East,9.2,-,N/A,,Unknown,100,2013-03-03 17:15:00
11:35 AM,23.0,21.2,93,29.85,8.0,East,10.4,-,N/A,,Unknown,90,2013-03-03 17:35:00
11:55 AM,23.0,23.0,100,29.84,8.0,East,10.4,-,N/A,,Unknown,80,2013-03-03 17:55:00
12:15 PM,24.8,23.0,93,29.83,7.0,East,11.5,-,N/A,,Unknown,90,2013-03-03 18:15:00
12:35 PM,24.8,24.8,100,29.82,8.0,East,13.8,-,N/A,,Unknown,90,2013-03-03 18:35:00
12:55 PM,24.8,24.8,100,29.82,8.0,East,13.8,-,N/A,,Unknown,80,2013-03-03 18:55:00
1:15 PM,24.8,24.8,100,29.81,8.0,East,15.0,-,N/A,,Unknown,100,2013-03-03 19:15:00
1:35 PM,23.0,23.0,100,29.80,8.0,East,17.3,-,N/A,,Unknown,100,2013-03-03 19:35:00
1:55 PM,24.8,24.8,100,29.78,8.0,East,17.3,-,N/A,,Unknown,100,2013-03-03 19:55:00
2:15 PM,24.8,24.8,100,29.78,7.0,East,15.0,-,N/A,,Unknown,100,2013-03-03 20:15:00
2:35 PM,24.8,24.8,100,29.77,8.0,East,17.3,-,N/A,,Unknown,100,2013-03-03 20:35:00
2:55 PM,24.8,24.8,100,29.76,8.0,East,18.4,-,N/A,,Unknown,100,2013-03-03 20:55:00
3:15 PM,24.8,24.8,100,29.76,8.0,ESE,20.7,25.3,N/A,,Unknown,110,2013-03-03 21:15:00
3:35 PM,24.8,24.8,100,29.76,7.0,ESE,19.6,-,N/A,,Unknown,110,2013-03-03 21:35:00
3:55 PM,26.6,26.6,100,29.77,7.0,East,17.3,-,N/A,,Unknown,100,2013-03-03 21:55:00
4:15 PM,26.6,26.6,100,29.76,7.0,East,18.4,-,N/A,,Unknown,100,2013-03-03 22:15:00
4:35 PM,26.6,26.6,100,29.76,7.0,East,19.6,-,N/A,,Unknown,100,2013-03-03 22:35:00
4:55 PM,26.6,26.6,100,29.76,7.0,East,16.1,-,N/A,,Unknown,100,2013-03-03 22:55:00
5:15 PM,26.6,26.6,100,29.75,7.0,East,16.1,-,N/A,,Unknown,100,2013-03-03 23:15:00
5:35 PM,26.6,26.6,100,29.75,6.0,East,16.1,-,N/A,,Mist,100,2013-03-03 23:35:00
5:55 PM,26.6,26.6,100,29.75,5.0,East,16.1,-,N/A,,Mist,100,2013-03-03 23:55:00
6:15 PM,26.6,26.6,100,29.75,5.0,East,18.4,-,N/A,,Mist,100,2013-03-04 00:15:00
6:35 PM,26.6,26.6,100,29.76,4.0,East,17.3,-,N/A,,Mist,100,2013-03-04 00:35:00
6:55 PM,26.6,26.6,100,29.75,6.0,East,18.4,-,N/A,,Mist,100,2013-03-04 00:55:00
7:15 PM,26.6,26.6,100,29.75,7.0,East,19.6,-,N/A,,Unknown,100,2013-03-04 01:15:00
7:35 PM,26.6,26.6,100,29.75,8.0,East,19.6,-,N/A,,Unknown,100,2013-03-04 01:35:00
7:55 PM,26.6,26.6,100,29.75,8.0,ESE,18.4,-,N/A,,Unknown,110,2013-03-04 01:55:00
8:15 PM,26.6,26.6,100,29.75,9.0,East,18.4,-,N/A,,Unknown,100,2013-03-04 02:15:00
8:35 PM,26.6,26.6,100,29.75,9.0,ESE,19.6,-,N/A,,Unknown,110,2013-03-04 02:35:00
8:55 PM,26.6,26.6,100,29.74,10.0,ESE,18.4,-,N/A,,Unknown,110,2013-03-04 02:55:00
9:15 PM,26.6,26.6,100,29.74,10.0,ESE,18.4,-,N/A,,Unknown,110,2013-03-04 03:15:00
9:35 PM,26.6,26.6,100,29.74,10.0,ESE,17.3,-,N/A,,Unknown,110,2013-03-04 03:35:00
9:55 PM,26.6,26.6,100,29.73,8.0,ESE,16.1,-,N/A,,Unknown,110,2013-03-04 03:55:00
10:15 PM,26.6,26.6,100,29.73,8.0,ESE,17.3,-,N/A,,Unknown,120,2013-03-04 04:15:00
10:35 PM,26.6,26.6,100,29.73,10.0,ESE,18.4,24.2,N/A,,Unknown,120,2013-03-04 04:35:00
10:55 PM,26.6,26.6,100,29.73,9.0,ESE,18.4,-,N/A,,Unknown,120,2013-03-04 04:55:00
11:15 PM,26.6,26.6,100,29.73,8.0,ESE,16.1,-,N/A,,Unknown,110,2013-03-04 05:15:00
11:35 PM,26.6,26.6,100,29.72,9.0,ESE,16.1,-,N/A,,Unknown,110,2013-03-04 05:35:00
11:55 PM,26.6,26.6,100,29.72,10.0,ESE,18.4,-,N/A,,Unknown,110,2013-03-04 05:55:00